Tracking 28790 objects as of 19-Apr-2024
HD Live streaming from Space Station
objects crossing your sky now

BREEZE-M DEB

Track BREEZE-M DEB now!
10-day predictions


NORAD ID: 38566
Int'l Code: 2008-011M
Perigee: 848.7 km
Apogee: 17,315.3 km
Inclination: 47.9 °
Period: 318.6 minutes
Semi major axis: 15452 km
RCS: 0.269 m2 (medium)
Launch date: March 14, 2008
Source: Commonwealth of Independent States (former USSR) (CIS)
Launch site: TYURATAM MISSILE AND SPACE COMPLEX (TTMTR)

Note: This is SATELLITE DEBRIS
Your satellite tracking list
Your tracking list is empty




NASA's NSSDC Master Catalog

Two Line Element Set (TLE):
1 38566U 08011M   24109.02221545 -.00001251  00000-0 -19961-1 0  9993
2 38566  47.8914 249.3376 5327978 342.8808   4.3979  4.51943471   124
Source of the keplerian elements: AFSPC